User: anonymous   Login
Location: Unspecified
(43.4354°N, 0.0000°E)
Time: 01:36:00
(UTC+00:00)
Language:

Tiros 1 - Orbit

View from above orbital plane
View from above orbital plane
View from above satellite
View from above satellite

Ground track
Ground track

The orbit data is extracted from the following two-line orbital elements,

1    29U 60002B   19175.47452909 -.00000176  00000-0  47721-5 0  9993
2    29  48.3781 202.6858 0023634 138.0339 222.2389 14.74308128165693
Epoch (UTC): 24 June 2019 11:23:19
Eccentricity: 0.0023634
inclination: 48.3781°
perigee height: 631 km
apogee height: 664 km
right ascension of ascending node: 202.6858°
argument of perigee: 138.0339°
revolutions per day: 14.74308128
mean anomaly at epoch: 222.2389°
orbit number at epoch: 16569

The dashed part of the orbit path shows where the satellite is in the earth's shadow,  

DLR